Location: Unspecified
(45.4615°N, 74.0512°W)
Time: 13:25:38
(UTC-04:00)

Resurs 1-4 Rocket - Visible Passes

Search period start: 23 April 2018 00:00
Search period end: 03 May 2018 00:00
Orbit: 799 x 815 km, 98.5° (Epoch: 19 April)

Date Brightness Start Highest point End Pass type
(mag) Time Alt. Az. Time Alt. Az. Time Alt. Az.
23 Apr 2.2 02:52:42 10° NNE 02:57:56 65° ESE 02:58:45 57° SSE visible
23 Apr 3.7 04:33:35 10° NNW 04:37:17 20° WNW 04:39:51 14° W visible
24 Apr 2.9 02:28:19 10° NNE 02:33:16 40° E 02:33:58 38° ESE visible
24 Apr 3.1 04:08:25 10° N 04:12:57 30° WNW 04:15:02 23° WSW visible
25 Apr 3.7 02:04:13 10° NE 02:08:29 25° E 02:09:10 24° ESE visible
25 Apr 2.5 03:43:30 10° N 03:48:32 47° WNW 03:50:15 35° WSW visible
26 Apr 4.2 01:40:39 10° NE 01:43:37 15° E 01:44:22 15° E visible
26 Apr 2.0 03:18:46 10° N 03:24:02 76° WNW 03:25:27 49° SW visible
26 Apr 4.1 05:00:53 10° NNW 05:02:59 12° NW 05:05:05 10° WNW visible
27 Apr 2.2 02:54:12 10° NNE 02:59:27 68° ESE 03:00:39 51° SSE visible
27 Apr 3.7 04:35:08 10° NNW 04:38:45 19° WNW 04:41:44 12° W visible
28 Apr 2.9 02:29:48 10° NNE 02:34:46 41° E 02:35:52 37° SE visible
28 Apr 3.2 04:09:57 10° N 04:14:26 29° WNW 04:16:57 20° WSW visible
29 Apr 3.6 02:05:40 10° NE 02:10:00 25° E 02:11:03 24° ESE visible
29 Apr 2.6 03:45:01 10° N 03:50:02 46° WNW 03:52:09 30° WSW visible
30 Apr 4.2 01:42:01 10° NE 01:45:09 16° E 01:46:15 15° ESE visible
30 Apr 2.0 03:20:16 10° N 03:25:32 74° WNW 03:27:21 42° SSW visible
30 Apr 4.1 05:02:31 10° NNW 05:04:28 12° NW 05:06:24 10° WNW visible
01 May 2.2 02:55:41 10° NNE 03:00:57 70° ESE 03:02:32 45° S visible
01 May 3.8 04:36:41 10° NNW 04:40:15 19° WNW 04:43:37 11° W visible
02 May 2.9 02:31:16 10° NNE 02:36:17 43° E 02:37:44 35° SE visible
02 May 3.2 04:11:29 10° N 04:15:56 28° WNW 04:18:49 18° WSW visible
